Location: Akgöl Batakl???
(38.9482°N, 31.8837°E)
Time: 08:18:04
(UTC+00:00)

Spot 2 Rocket - Pass Details

Date: 08 May 2026
Orbit: 752 x 765 km, 98.3° (Epoch: 6 June)

Event Time Altitude Azimuth Distance (km) Brightness Sun altitude
Exits shadow 18:56:55 35° 181° (S) 1,202 4.1 -20.9°
Maximum altitude 18:59:02 73° 258° (WSW) 787 3.5 -21.2°
Drops below altitude 10° 19:04:03 10° 343° (NNW) 2,284 6.9 -21.8°
Sets 19:06:22 0° 346° (NNW) 3,214 7.8 -22.2°
